ESTCube-1

operational
NORAD ID: 39161 Int'l Des: 2013-021 Owner: ESSP Country: EE
LEOCIRCULARRETROGRADESSO

About ESTCube-1

Description loading...

Live Position

Loading 3D Globe...

Upcoming Passes

Altitude History

Altitude vs Time

uPlot chart will show altitude changes over time

Two-Line Element Set

1 39161U 13021C 26063.15030628 .00002670 00000-0 35067-3 0 9998
2 39161 97.7431 120.9829 0008177 8.6946 351.4407 14.81043876689470
Epoch: Mar 4, 2026 • Age: 19 hours

Current Status

Altitude 645.5 km
Velocity 7.53 km/s
Sub-Earth Point -38.30°S, 154.84°W
Launch Date May 7, 2013
Age 12.8 years
Type other

Technical Details

Classification Payload
Mass 1.00 kg
Dry Mass 1.00 kg
Total Mass 1.00 kg
Length 0.10 m
Diameter 0.10 m
Span 0.10 m
Shape Box
Manufacturer ESSP/TARTU
Bus Type Cubesat 1U
Phase Status In Orbit
Owner/State ESSP/EE

Large Constellations

Loading constellations...